EW1633 Weather Reports


Display with metric or nautical units.
time (UTC)temp
F
wind
direction
speed
MPH
gust
MPH
rain 1hr
in
rain 24hr
in
rain mn
in
humidity
%
barometer
mb
20260508003059 0 231 11.0 21.0 0.00 0.00 0.00 1013.8
20260508001613 0 216 14.0 24.0 0.00 0.00 0.00 1013.9
20260508000049 0 274 13.0 18.0 0.00 0.00 0.00 1013.9
20260507234547 0 226 11.0 18.0 0.00 0.00 0.00 1013.7
20260507233041 0 250 12.0 24.0 0.00 0.00 0.00 1013.8
20260507231537 0 272 17.0 24.0 0.00 0.00 0.00 1013.8
20260507230014 0 262 14.0 0.0 0.00 0.00 0.00 1013.9
20260507224510 0 264 13.0 22.0 0.00 0.00 0.00 1014.0
20260507223048 0 241 12.0 21.0 0.00 0.00 0.00 1014.1
20260507221544 0 267 12.0 21.0 0.00 0.00 0.00 1014.2
20260507220037 0 248 11.0 21.0 0.00 0.00 0.00 1014.5
20260507214518 0 245 9.0 16.0 0.00 0.00 0.00 1014.6
20260507213016 0 248 8.0 16.0 0.00 0.00 0.00 1014.7
20260507211511 0 256 11.0 17.0 0.00 0.00 0.00 1014.7
20260507210007 0 259 9.0 16.0 0.00 0.00 0.00 1014.8
20260507204506 0 250 12.0 19.0 0.00 0.00 0.00 1014.9
20260507203007 0 258 12.0 18.0 0.00 0.00 0.00 1015.1
20260507201600 0 257 7.0 15.0 0.00 0.00 0.00 1015.2
20260507200042 0 253 8.0 16.0 0.00 0.00 0.00 1015.4
20260507194543 0 262 6.0 14.0 0.00 0.00 0.00 1015.5
20260507193040 0 259 8.0 12.0 0.00 0.00 0.00 1015.6
20260507191540 0 252 5.0 14.0 0.00 0.00 0.00 1015.7
20260507190039 0 250 9.0 14.0 0.00 0.00 0.00 1015.6
20260507184539 0 219 7.0 13.0 0.00 0.00 0.00 1015.9
20260507183038 0 223 8.0 16.0 0.00 0.00 0.00 1015.9
20260507181537 0 257 7.0 16.0 0.00 0.00 0.00 1016.0
20260507180025 0 265 8.0 15.0 0.00 0.00 0.00 1016.2
20260507174535 0 258 8.0 19.0 0.00 0.00 0.00 1016.1
20260507173027 0 259 10.0 18.0 0.00 0.00 0.00 1016.1
20260507171518 0 250 8.0 17.0 0.00 0.00 0.00 1016.1
20260507170012 0 251 11.0 17.0 0.00 0.00 0.00 1015.9
20260507164509 0 240 10.0 16.0 0.00 0.00 0.00 1016.2
20260507163005 0 264 9.0 19.0 0.00 0.00 0.00 1016.3
20260507161601 0 255 8.0 17.0 0.00 0.00 0.00 1016.4
20260507160042 0 223 12.0 21.0 0.00 0.00 0.00 1016.0
20260507154539 0 250 13.0 21.0 0.00 0.00 0.00 1016.2
20260507153023 0 221 12.0 19.0 0.00 0.00 0.00 1016.2
20260507151518 0 0.0 0.0 0.00 0.00 0.00 1016.2
20260507150015 0 0.0 0.0 0.00 0.00 0.00 1016.1
20260507144511 0 0.0 0.0 0.00 0.00 0.00 1016.1
20260507143004 0 0.0 0.0 0.00 0.00 0.00 1016.1
20260507141600 0 0.0 0.0 0.00 0.00 0.00 1016.2
20260507140058 0 0.0 0.0 0.00 0.00 0.00 1016.2
20260507134554 0 0.0 0.0 0.00 0.00 0.00 1016.1
20260507133048 0 0.0 0.0 0.00 0.00 0.00 1016.0
20260507131534 0 0.0 0.0 0.00 0.00 0.00 1015.7
20260507130021 0 0.0 0.0 0.00 0.00 0.00 1015.6
20260507124559 0 0.0 0.0 0.00 0.00 0.00 1015.6
20260507123056 0 0.0 0.0 0.00 0.00 0.00 1015.7
20260507121539 0 0.0 0.0 0.00 0.00 0.00 1016.0
20260507120040 0 0.0 0.0 0.00 0.00 0.00 1015.8
20260507114528 0 0.0 0.0 0.00 0.00 0.00 1015.7
20260507113024 0 0.0 0.0 0.00 0.00 0.00 1015.2
20260507111520 0 0.0 0.0 0.00 0.00 0.00 1015.0
20260507110016 0 0.0 0.0 0.00 0.00 0.00 1014.8
20260507104512 0 0.0 0.0 0.00 0.00 0.00 1014.8
20260507103007 0 0.0 0.0 0.00 0.00 0.00 1014.5
20260507101557 0 0.0 0.0 0.00 0.00 0.00 1014.4
20260507100046 0 0.0 0.0 0.00 0.00 0.00 1014.5
20260507094541 0 0.0 0.0 0.00 0.00 0.00 1014.5
20260507093037 0 257 23.0 34.0 0.00 0.00 0.00 1014.5
20260507091532 0 289 23.0 31.0 0.00 0.00 0.00 1014.4
20260507090027 0 271 23.0 31.0 0.00 0.00 0.00 1014.7
20260507084522 0 263 22.0 29.0 0.00 0.00 0.00 1014.9
20260507083018 0 261 19.0 28.0 0.00 0.00 0.00 1014.9
20260507081501 0 278 19.0 29.0 0.00 0.00 0.00 1014.9
20260507074607 0 269 19.0 28.0 0.00 0.00 0.00 1015.0
20260507073049 0 258 20.0 30.0 0.00 0.00 0.00 1015.0
20260507071544 0 261 23.0 0.0 0.00 0.00 0.00 1014.8
20260507070041 0 266 20.0 27.0 0.00 0.00 0.00 1015.0
20260507064535 0 249 19.0 27.0 0.00 0.00 0.00 1015.2
20260507063031 0 263 18.0 25.0 0.00 0.00 0.00 1015.5
20260507061509 0 272 18.0 27.0 0.00 0.00 0.00 1015.6
20260507060004 0 248 19.0 27.0 0.00 0.00 0.00 1015.6
20260507054621 0 264 18.0 25.0 0.00 0.00 0.00 1015.8
20260507053049 0 256 16.0 23.0 0.00 0.00 0.00 1016.0
20260507051539 0 260 14.0 20.0 0.00 0.00 0.00 1016.2
20260507050034 0 230 13.0 19.0 0.00 0.00 0.00 1016.3
20260507044530 0 261 12.0 19.0 0.00 0.00 0.00 1016.2
20260507043025 0 261 11.0 22.0 0.00 0.00 0.00 1016.1
20260507041519 0 254 14.0 25.0 0.00 0.00 0.00 1016.1
20260507040015 0 248 13.0 23.0 0.00 0.00 0.00 1015.8
20260507034602 0 263 14.0 24.0 0.00 0.00 0.00 1015.7
20260507033104 0 258 13.0 22.0 0.00 0.00 0.00 1015.6
20260507031604 0 264 13.0 23.0 0.00 0.00 0.00 1015.5
20260507030054 0 259 12.0 24.0 0.00 0.00 0.00 1015.5
20260507024547 0 259 11.0 23.0 0.00 0.00 0.00 1015.5
20260507023054 0 230 13.0 23.0 0.00 0.00 0.00 1015.5
20260507021546 0 257 13.0 21.0 0.00 0.00 0.00 1015.2
20260507020048 0 264 13.0 24.0 0.00 0.00 0.00 1015.2
20260507014544 0 248 13.0 23.0 0.00 0.00 0.00 1015.2
20260507013031 0 242 14.0 23.0 0.00 0.00 0.00 1015.2
20260507011528 0 245 14.0 24.0 0.00 0.00 0.00 1015.2
20260507010021 0 227 11.0 22.0 0.00 0.00 0.00 1015.4
20260507004520 0 251 10.0 21.0 0.00 0.00 0.00 1015.3